Lid_Strength_Index
9 13 14 13 13 13 13 14 12 12 9 11 11 12 10 8 7 7 7 7 6 5 4 3 2 2 2 2 2 1 2 1 1 1 1 2 2 1 1 1 -0 0 -0 0
11 13 10 10 11 12 13 13 14 11 10 11 12 12 10 8 8 7 7 7 6 5 4 4 3 2 2 2 2 2 2 1 1 1 1 1 1 0 1 1 0 0 -0 0
11 9 7 9 11 12 14 14 12 14 11 10 12 13 12 9 8 7 6 6 5 5 5 4 4 3 2 3 2 2 1 2 1 1 1 1 1 1 1 1 1 0 0 -0
10 8 8 10 11 12 17 13 11 12 14 17 11 18 13 11 10 8 7 7 6 5 4 4 4 3 3 2 1 1 1 2 1 1 2 2 2 3 2 1 1 1 0 -0
10 10 10 10 9 10 13 9 11 12 14 14 15 17 15 11 12 10 8 7 6 5 4 4 4 3 2 2 2 1 1 1 1 1 2 2 2 2 2 1 1 1 1 0
9 7 8 9 8 9 8 10 11 12 14 18 15 15 16 14 12 10 8 7 6 5 5 4 3 2 2 2 2 1 2 1 1 1 2 2 2 2 3 2 2 2 1 1
10 9 8 8 11 9 10 13 19 19 20 20 16 16 14 11 9 9 8 7 6 5 5 4 4 3 3 3 2 2 2 2 2 2 2 2 2 2 2 2 2 2 2 2
14 14 10 9 10 11 12 12 17 21 21 19 15 18 15 10 8 8 7 6 6 5 5 4 4 3 3 3 2 2 2 2 2 2 2 2 3 3 2 2 2 2 2 1
14 13 8 9 8 8 11 13 11 15 15 17 17 14 11 9 9 8 8 7 7 6 5 4 4 3 3 3 2 2 2 2 2 2 2 2 2 1 1 2 2 1 1 1
12 14 11 9 8 9 10 9 14 15 19 19 19 18 16 13 11 9 9 8 7 6 5 4 4 3 3 2 2 2 1 2 2 2 2 1 1 1 2 2 2 1 1 2
11 13 12 10 12 13 11 13 14 14 16 18 20 18 11 11 10 10 9 7 7 6 5 5 4 3 3 2 2 3 3 4 3 3 3 3 2 1 1 1 1 1 1 1
12 14 15 13 10 10 12 13 14 15 16 16 17 17 9 9 9 8 8 7 6 5 5 4 4 3 3 3 3 3 3 4 3 3 3 2 2 2 2 1 1 1 2 1
12 15 16 14 12 12 13 13 14 15 14 17 18 17 9 8 8 8 8 7 6 6 5 4 4 4 3 3 3 2 2 2 2 1 1 1 2 1 1 1 1 2 1 2
8 14 14 16 15 14 14 12 13 15 15 16 16 15 12 10 10 8 7 7 6 6 5 5 4 4 3 3 3 3 2 1 1 1 1 1 2 1 2 2 2 2 2 2
11 14 14 12 12 12 13 13 12 14 13 14 14 14 12 10 9 8 7 6 6 6 6 6 5 5 4 4 3 3 3 2 2 2 1 1 2 2 2 3 3 2 2 1
12 14 13 13 11 12 13 12 12 12 12 13 12 13 9 8 7 8 7 7 7 6 6 6 5 5 6 5 4 4 4 4 3 2 2 2 3 2 2 2 2 2 3 2
11 14 14 16 11 12 15 13 13 11 11 12 14 11 8 9 8 8 7 6 6 6 6 8 8 7 5 5 4 4 4 4 5 5 5 4 4 4 3 2 2 2 2 2
12 13 14 15 13 18 12 10 9 11 11 10 10 10 8 8 7 7 6 6 6 6 7 8 7 7 6 4 6 5 6 7 7 7 7 7 6 4 3 3 3 3 2 3
12 13 15 15 16 12 10 10 11 12 13 9 10 9 8 7 6 7 6 6 7 8 8 8 8 6 6 7 7 8 8 7 7 7 8 8 7 7 6 5 3 3 3 3
12 13 14 15 16 17 12 8 7 8 15 9 8 9 8 7 11 9 7 7 7 7 8 8 7 7 7 8 7 8 8 9 9 8 9 9 8 8 7 7 6 5 4 3
14 14 15 15 16 13 8 7 6 14 13 8 7 8 7 9 9 9 8 7 7 7 8 8 8 8 9 8 9 9 9 10 9 9 9 9 9 9 8 8 7 7 7 6
14 16 16 15 16 17 7 7 10 9 10 8 7 7 8 8 8 9 8 8 8 8 8 7 8 8 8 8 8 9 9 8 7 7 7 7 7 6 6 7 6 6 5 5
14 12 13 13 13 10 8 8 7 7 8 7 8 8 8 8 8 9 9 9 9 8 8 7 8 9 9 8 8 9 9 8 8 9 8 8 7 7 6 7 7 7 6 6
10 10 11 11 10 9 8 8 7 8 8 8 8 7 7 7 7 7 7 8 8 8 8 8 8 9 9 8 8 8 8 8 9 9 10 9 8 8 7 7 7 7 7 7
9 10 12 12 10 9 8 8 7 6 7 7 7 6 6 6 7 7 7 8 8 8 8 8 8 9 9 9 8 8 8 8 9 9 9 9 9 9 8 8 8 7 8 8
10 10 11 12 9 10 9 7 7 6 6 6 6 7 7 6 8 7 7 7 7 7 7 8 8 8 9 9 9 9 8 8 9 10 9 9 9 9 8 9 8 7 8 8